FENGYUN 1C DEB

Satellite information

Favourite Embed

Satellite Type and Status

DEBRISIN ORBIT

Key statistics

Satellite FENGYUN 1C DEB at a glance.

Uptime

9617

Days in orbit

Revolutions

≈ 13.2

Per day

Orbit

SSO

Sun Synchronous Orbit

Inclination

99.1

Latest

Satellite identification and parameters

Extended collection of information and parameters for FENGYUN 1C DEB.

Object identification

Identified? True

Debris? True

Object name: FENGYUN 1C DEB

International designator: 1999-025CPV

Object number (NORAD): 31992

Object ID (CCSDS): 31992

Country: PEOPLES REPUBLIC OF CHINA (PRC)

Current information (Y/N): Y

RCS size: SMALL

Orbital parameters

Period: 108.859 minutes

Inclination: 99.1488 deg

SMA: 7552.138 km

Apoapsis: 1583.009 km

Periapsis: 764.997 km

RAAN: 213.5008 deg

Eccentricy: 0.05415768

Argument of periapsis: 285.5005 deg

Mean anomaly: 68.6962 deg

Mean motion: 13.22811306 rev/day

Mean motion (dot): 0.00000482 rev/day2

B* drag term: 0.00057121551 1/REarth

Two-line elements (TLE)

Creation date: Aug. 29, 2025, 9:54 a.m.

Reference frame: TEME

Reference center: EARTH

Epoch: Aug. 29, 2025, 4:36 a.m. UTC

TLE line 0: 0 FENGYUN 1C DEB

TLE line 1: 1 31992U 99025CPV 25241.19181937 .00000482 00000-0 57122-3 0 9996

TLE line 2: 2 31992 99.1488 213.5008 0541577 285.5005 68.6962 13.22811306524799

Live tracking on map

Real-time ground track for satellite FENGYUN 1C DEB.

In-orbit conjunctions

A list of the most updated potential collisions computed for object FENGYUN 1C DEB.

Target Orbit TCA Probability of collision Miss distance Type
DMSP 5D-2 F8 DEB SSO 2024-10-18 04:09:39 0.0001208882 682.0 (m) DEBRIS
COSMOS 1980 LEO 2024-06-09 20:57:51 0.0004467831 88.0 (m) PAYLOAD

Associated space launch

Chinese polar orbiting meteorological satellite

FENGYUN 1C DEB was lifted into orbit during the mission ‘Long March 4B | Feng Yun 1C’, on board a Long March 4B space rocket.

The launch took place on May 10, 1999, 1:33 a.m. from Launch Complex 7.

For more information about the launch, click the button.

Launch to space Long March 4B | Feng Yun 1C
Long March 4B | Feng Yun 1C

Agency: N/A

Status: Launch Successful

Launch date: May 10, 1999, 1:33 a.m. UTC

Rocket: Long March 4B

Launch pad: Launch Complex 7

Location: Taiyuan Satellite Launch Center, People's Republic of China

...

Latest news about this satellite

There are no fresh news available about this satellite. Check back as we update our databases every day.


Newsletter sign-up

Weekly statistics, charts and insights to help you stay on top of the space industry.